Tracking 26321 objects as of 28-Nov-2022
HD Live streaming from Space Station
objects crossing your sky now

ATLAS 5 CENTAUR DEB

Track ATLAS 5 CENTAUR DEB now!


NORAD ID: 49361
Int'l Code: 2018-079FN
Perigee: 10,346.5 km
Apogee: 40,878.8 km
Inclination: 10.2 °
Period: 948.8 minutes
Semi major axis: 31983 km
RCS: Unknown
Launch date: October 17, 2018
Source: United States (US)
Launch site: AIR FORCE EASTERN TEST RANGE (AFETR)

Note: This is SATELLITE DEBRIS
aabbcc
Your satellite tracking list
Your tracking list is empty




NASA's NSSDC Master Catalog

Two Line Element Set (TLE):
1 49361U 18079FN  22331.33822509 -.00000064  00000-0  00000-0 0  9992
2 49361  10.1604 194.8617 4773109   4.2600 358.8967  1.51778541  6917
Source of the keplerian elements: AFSPC